Location: ????????
(55.5667°N, 37.5833°E)
Time: 20:48:09
(UTC+00:00)

Cosmos 1943 Rocket - Pass Details

Date: 14 April 2026
Orbit: 809 x 844 km, 71.0° (Epoch: 11 May)

Event Time Altitude Azimuth Distance (km) Brightness Sun altitude
Rises 19:04:29 0° 320° (NW) 3,415 7.1 -18.1°
Reaches altitude 10° 19:07:29 10° 305° (NW) 2,475 5.8 -18.4°
Maximum altitude 19:11:37 21° 259° (WSW) 1,806 4.2 -18.7°
Drops below altitude 10° 19:15:43 10° 212° (SSW) 2,457 4.4 -19.1°
Enters shadow 19:16:24 - 207° (SSW) 2,650 4.5 -19.1°
